,,�O�C���x[��],����1,�O�C���x[��],����2,���ԉ��x [��],����3,���Ԏ��x [��],����4,�Q�����x [��],����5,���� [��],����6,�R�����i��󒲎��j���x�m���n,����7
2003/9/1,0:00,15.2,0,91.4,0,10.4,0,63.6,0,23.7,0,23.6,0,25.7,0
2003/9/1,0:15,15,0,92.1,0,10.4,0,63.6,0,23.7,0,23.6,0,25.6,0
2003/9/1,0:30,15.3,0,92.8,0,10.3,0,64.1,0,23.7,0,23.6,0,25.5,0
2003/9/1,0:45,15.1,0,92.4,0,10.3,0,64,0,23.7,0,23.7,0,25.5,0
2003/9/1,1:00,15.1,0,92.7,0,10.2,0,63.8,0,23.7,0,23.7,0,25.4,0
2003/9/1,1:15,15.2,0,92.9,0,10.3,0,63.6,0,23.7,0,23.7,0,25.3,0
2003/9/1,1:30,15.1,0,92.4,0,10.2,0,63.5,0,23.7,0,23.7,0,25.2,0
2003/9/1,1:45,14.8,0,92.3,0,10.1,0,63.3,0,23.8,0,23.7,0,25.1,0
2003/9/1,2:00,14.8,0,92.9,0,10.1,0,62.9,0,23.8,0,23.8,0,25.1,0
2003/9/1,2:15,15.2,0,92.9,0,9.9,0,62.5,0,23.8,0,23.8,0,25,0
2003/9/1,2:30,15.3,0,92.6,0,10,0,62.3,0,23.8,0,23.8,0,24.9,0
2003/9/1,2:45,15.3,0,92.5,0,9.9,0,62.1,0,23.8,0,23.8,0,24.9,0
2003/9/1,3:00,15.5,0,92.6,0,9.9,0,62,0,23.8,0,23.8,0,24.8,0
2003/9/1,3:15,15.7,0,92.4,0,9.8,0,61.8,0,23.8,0,23.9,0,24.8,0
2003/9/1,3:30,15.7,0,92.3,0,9.8,0,61.7,0,23.8,0,23.9,0,24.7,0
2003/9/1,3:45,16,0,90.8,0,9.7,0,61.5,0,23.8,0,23.9,0,24.6,0
2003/9/1,4:00,15.8,0,90.9,0,9.8,0,61.4,0,23.8,0,23.9,0,24.6,0
2003/9/1,4:15,15.9,0,92,0,9.7,0,61.3,0,23.8,0,23.9,0,24.5,0
2003/9/1,4:30,15.9,0,91.9,0,9.6,0,61.1,0,23.7,0,23.9,0,24.5,0
2003/9/1,4:45,16.1,0,91.6,0,9.6,0,60.9,0,23.7,0,24,0,24.4,0
2003/9/1,5:00,16.4,0,89.8,0,9.5,0,60.8,0,23.7,0,24,0,24.4,0
2003/9/1,5:15,16.4,0,91,0,9.5,0,60.6,0,23.7,0,24,0,24.4,0
2003/9/1,5:30,16.3,0,91,0,9.5,0,60.4,0,23.7,0,24,0,24.3,0
2003/9/1,5:45,16.5,0,90.7,0,9.5,0,60.3,0,23.7,0,24,0,24.3,0
2003/9/1,6:00,16.6,0,90.7,0,9.4,0,60.8,0,23.7,0,24,0,24.2,0
2003/9/1,6:15,16.8,0,90.5,0,9.5,0,60.6,0,23.6,0,24,0,24.2,0
2003/9/1,6:30,17.4,0,88,0,9.4,0,60.3,0,23.6,0,24,0,24.3,0
2003/9/1,6:45,17.8,0,87.1,0,9.4,0,60.2,0,23.6,0,24.1,0,24.3,0
2003/9/1,7:00,18.1,0,87.5,0,9.4,0,60.3,0,23.6,0,23.5,0,24.3,0
2003/9/1,7:15,18.4,0,86.7,0,9.6,0,60.7,0,23.5,0,23.5,0,24.5,0
2003/9/1,7:30,18.8,0,86,0,9.6,0,60.6,0,23.4,0,23.5,0,24.8,0
2003/9/1,7:45,19.6,0,81.4,0,9.7,0,61.2,0,23.3,0,23.6,0,25.1,0
2003/9/1,8:00,20.1,0,79.5,0,9.8,0,60.8,0,23.3,0,23.6,0,25.3,0
2003/9/1,8:15,21,0,76,0,9.8,0,61.3,0,23.2,0,23.6,0,25.4,0
2003/9/1,8:30,21.4,0,72.4,0,10,0,61.3,0,23.2,0,23.6,0,25.6,0
2003/9/1,8:45,22,0,71.9,0,9.9,0,61.5,0,23.1,0,23.7,0,25.8,0
2003/9/1,9:00,22.5,0,70.7,0,10.1,0,61.8,0,23.1,0,23.7,0,26.1,0
2003/9/1,9:15,22.8,0,69.1,0,10,0,62.3,0,23.1,0,23.7,0,26.3,0
2003/9/1,9:30,23.1,0,66.8,0,10.2,0,63.2,0,23.1,0,23.8,0,26.4,0
2003/9/1,9:45,23.1,0,70.6,0,10.3,0,63.3,0,23.2,0,23.8,0,26.6,0
2003/9/1,10:00,23.2,0,70.9,0,10.4,0,63.6,0,23.2,0,23.8,0,26.8,0
2003/9/1,10:15,23.6,0,70.7,0,10.4,0,63.7,0,23.2,0,23.9,0,26.9,0
2003/9/1,10:30,24,0,68.2,0,10.7,0,63.7,0,23.3,0,23.9,0,27.1,0
2003/9/1,10:45,24.2,0,67.4,0,10.8,0,63.7,0,23.3,0,23.9,0,27.4,0
2003/9/1,11:00,24.4,0,68.4,0,11,0,63.9,0,23.4,0,24,0,27.6,0
2003/9/1,11:15,24.8,0,66.7,0,11,0,64,0,23.4,0,24,0,27.8,0
2003/9/1,11:30,24.8,0,66.7,0,11,0,64.1,0,23.5,0,24.1,0,28,0
2003/9/1,11:45,24.7,0,67.6,0,11.1,0,64.2,0,23.6,0,24.1,0,28.2,0
2003/9/1,12:00,25.1,0,67.4,0,11,0,64.3,0,23.6,0,24.1,0,28.4,0
2003/9/1,12:15,25.5,0,66,0,11.3,0,64.1,0,23.7,0,24.2,0,28.6,0
2003/9/1,12:30,25.9,0,64.4,0,11.4,0,64.2,0,23.8,0,24.2,0,28.9,0
2003/9/1,12:45,25.8,0,65.9,0,11.7,0,64.4,0,23.9,0,24.3,0,29,0
2003/9/1,13:00,25.8,0,63.9,0,11.7,0,64.4,0,24,0,24.3,0,29.2,0
2003/9/1,13:15,25.4,0,68.3,0,11.9,0,64.3,0,24,0,24.4,0,29.4,0
2003/9/1,13:30,25.4,0,68.8,0,11.9,0,63.9,0,24.1,0,24.4,0,29.6,0
2003/9/1,13:45,25.4,0,67.9,0,12.1,0,63.6,0,24.2,0,24.5,0,29.7,0
2003/9/1,14:00,25.6,0,67.7,0,12.2,0,63.4,0,24.3,0,24.6,0,29.8,0
2003/9/1,14:15,26.3,0,65.3,0,12.2,0,63.2,0,24.4,0,24.6,0,29.9,0
2003/9/1,14:30,26.4,0,64.4,0,12.3,0,63,0,24.4,0,24.7,0,30.1,0
2003/9/1,14:45,26.1,0,65.6,0,12.4,0,62.6,0,24.5,0,24.7,0,30.2,0
2003/9/1,15:00,25.9,0,65.5,0,12.5,0,62.1,0,24.6,0,24.8,0,30.3,0
2003/9/1,15:15,26,0,64.2,0,12.7,0,61.7,0,24.7,0,24.8,0,30.6,0
2003/9/1,15:30,25.7,0,65.9,0,12.8,0,61.6,0,24.8,0,24.9,0,30.8,0
2003/9/1,15:45,25.3,0,66.8,0,13,0,61.8,0,24.9,0,25,0,30.9,0
2003/9/1,16:00,24.4,0,71.7,0,12.9,0,61.9,0,24.9,0,25.1,0,30.9,0
2003/9/1,16:15,24.3,0,71.2,0,12.8,0,61.7,0,25,0,25.1,0,30.9,0
2003/9/1,16:30,24,0,71.5,0,12.9,0,61.3,0,25,0,25.2,0,31,0
2003/9/1,16:45,23.6,0,73.1,0,13,0,61.1,0,25.1,0,25.3,0,30.9,0
2003/9/1,17:00,23.7,0,71.4,0,12.9,0,60.7,0,25.1,0,25.4,0,30.9,0
2003/9/1,17:15,23.2,0,75.3,0,12.8,0,60.5,0,25.1,0,25.5,0,30.9,0
2003/9/1,17:30,22.7,0,79,0,12.2,0,56.6,0,25.2,0,25.6,0,30.5,0
2003/9/1,17:45,22.3,0,78.9,0,12.3,0,55.1,0,25.3,0,25.6,0,29.8,0
2003/9/1,18:00,21.8,0,81.5,0,11.8,0,55.2,0,25.8,0,25.7,0,29.3,0
2003/9/1,18:15,21.6,0,82.8,0,11.6,0,56.6,0,25.6,0,25.7,0,29.1,0
2003/9/1,18:30,21.6,0,81.6,0,11.5,0,57.3,0,25.5,0,25.8,0,28.9,0
2003/9/1,18:45,21.5,0,82.4,0,11.4,0,58,0,25.3,0,25.8,0,28.5,0
2003/9/1,19:00,21,0,84.6,0,11.4,0,58.5,0,25.1,0,25.9,0,28.2,0
2003/9/1,19:15,20.8,0,86.2,0,11.3,0,59.1,0,25.1,0,25.9,0,28,0
2003/9/1,19:30,20.9,0,85.6,0,11.1,0,60.8,0,25,0,25.9,0,28.2,0
2003/9/1,19:45,21,0,84.1,0,11,0,61.9,0,24.9,0,23.5,0,28.2,0
2003/9/1,20:00,21,0,84.5,0,11,0,61.9,0,24.9,0,23.9,0,28,0
2003/9/1,20:15,20.9,0,84,0,11.3,0,62,0,24.8,0,23.9,0,27.9,0
2003/9/1,20:30,20.8,0,85.3,0,11.1,0,62.4,0,24.8,0,23.9,0,27.8,0
2003/9/1,20:45,20.7,0,86.1,0,11,0,62.1,0,24.9,0,24,0,27.5,0
2003/9/1,21:00,20.5,0,87.8,0,10.9,0,63.9,0,24.9,0,24,0,27.4,0
2003/9/1,21:15,20.5,0,87.8,0,10.8,0,65.3,0,25,0,24,0,27.2,0
2003/9/1,21:30,20.4,0,89.1,0,11.2,0,65.4,0,25,0,24.1,0,27,0
2003/9/1,21:45,20.4,0,89.5,0,11,0,63.1,0,25,0,24.1,0,27.3,0
2003/9/1,22:00,20.3,0,89.6,0,10.9,0,62.5,0,25,0,24.1,0,27.6,0
2003/9/1,22:15,20.4,0,89.1,0,11.5,0,62.2,0,25,0,24.2,0,27.8,0
2003/9/1,22:30,20.2,0,89.6,0,11.5,0,61.8,0,24.9,0,24.2,0,27.9,0
2003/9/1,22:45,20,0,90.7,0,11.5,0,62.1,0,24.9,0,24.2,0,28,0
2003/9/1,23:00,20.1,0,90.4,0,11.8,0,61.4,0,25,0,24.3,0,28,0
2003/9/1,23:15,20.2,0,90.2,0,11.4,0,61.2,0,25.1,0,24.3,0,28,0
2003/9/1,23:30,20.1,0,90.7,0,11.6,0,60.9,0,25.2,0,24.3,0,28,0
2003/9/1,23:45,20.2,0,90.1,0,11.7,0,60.7,0,25.3,0,24.4,0,28,0
2003/9/2,0:00,20.3,0,88.9,0,11.5,0,60.7,0,25.3,0,24.4,0,28,0
2003/9/2,0:15,20.1,0,89.8,0,11.5,0,60.6,0,25.4,0,24.5,0,27.9,0
2003/9/2,0:30,20.1,0,90.2,0,11.4,0,60.4,0,25.5,0,24.5,0,27.9,0
2003/9/2,0:45,20,0,90.4,0,11.3,0,60.2,0,25.5,0,24.5,0,27.8,0
2003/9/2,1:00,19.9,0,90.8,0,11.1,0,60,0,25.6,0,24.6,0,27.8,0
2003/9/2,1:15,19.9,0,90.1,0,11.1,0,59.7,0,25.6,0,24.6,0,27.7,0
2003/9/2,1:30,20,0,89.6,0,11.9,0,59.5,0,25.7,0,24.7,0,27.7,0
2003/9/2,1:45,20,0,89.9,0,10.8,0,59.3,0,25.7,0,24.7,0,27.6,0
2003/9/2,2:00,19.7,0,90.7,0,10.9,0,59.3,0,25.7,0,24.8,0,27.6,0
2003/9/2,2:15,19.8,0,91,0,11.3,0,59,0,25.8,0,24.8,0,27.5,0
2003/9/2,2:30,19.8,0,91,0,11,0,58.9,0,25.8,0,24.8,0,27.5,0
2003/9/2,2:45,19.8,0,91,0,11.1,0,58.7,0,25.8,0,24.9,0,27.4,0
2003/9/2,3:00,19.9,0,90.7,0,11.1,0,58.6,0,25.8,0,24.9,0,27.4,0
2003/9/2,3:15,19.8,0,91,0,11.1,0,58.5,0,25.8,0,25,0,27.3,0
2003/9/2,3:30,19.8,0,91,0,11.1,0,58.5,0,25.8,0,25,0,27.3,0
2003/9/2,3:45,19.7,0,91.3,0,11,0,58.3,0,25.7,0,25.1,0,27.2,0
2003/9/2,4:00,19.8,0,90.4,0,11,0,58.3,0,25.7,0,25.1,0,27.2,0
2003/9/2,4:15,19.8,0,90.7,0,10.9,0,58.2,0,25.7,0,25.2,0,27.2,0
2003/9/2,4:30,19.5,0,90.8,0,10.8,0,58.2,0,25.7,0,25.2,0,27.1,0
2003/9/2,4:45,19.2,0,91.5,0,10.9,0,58.1,0,25.7,0,25.3,0,27.1,0
2003/9/2,5:00,18.9,0,91.5,0,10.8,0,58,0,25.7,0,25.3,0,27,0
2003/9/2,5:15,18.6,0,91.9,0,10.7,0,58,0,25.7,0,25.4,0,26.9,0
2003/9/2,5:30,18.9,0,92.1,0,10.8,0,57.9,0,25.7,0,25.4,0,26.9,0
2003/9/2,5:45,19,0,91.8,0,10.6,0,57.8,0,25.6,0,25.5,0,26.9,0
2003/9/2,6:00,19,0,91.8,0,10.8,0,58.3,0,25.6,0,25.5,0,26.9,0
2003/9/2,6:15,19.4,0,91.7,0,10.8,0,58.1,0,25.6,0,25.5,0,26.9,0
2003/9/2,6:30,19.7,0,90.5,0,10.7,0,58.2,0,25.6,0,24.3,0,27,0
2003/9/2,6:45,20.2,0,90.1,0,10.7,0,58.9,0,25.4,0,24.4,0,27.4,0
2003/9/2,7:00,20.8,0,87.9,0,10.8,0,59,0,25.3,0,24.4,0,27.6,0
2003/9/2,7:15,21.3,0,86.1,0,10.9,0,59,0,25.2,0,24.5,0,27.7,0
2003/9/2,7:30,22.1,0,83.1,0,11.1,0,59.6,0,25.1,0,24.5,0,27.9,0
2003/9/2,7:45,23,0,79.4,0,11.2,0,59.9,0,25,0,24.2,0,28,0
2003/9/2,8:00,24,0,76,0,11.2,0,59.7,0,25,0,23.9,0,28.2,0
2003/9/2,8:15,24.8,0,71.7,0,11.3,0,59.5,0,25,0,24,0,28.3,0
2003/9/2,8:30,25.5,0,68.7,0,11.5,0,59.3,0,25,0,24,0,28.5,0
2003/9/2,8:45,25.9,0,66.3,0,11.5,0,59.2,0,24.9,0,24,0,28.7,0
2003/9/2,9:00,25.2,0,65.9,0,11.5,0,59.3,0,24.9,0,24.1,0,28.8,0
2003/9/2,9:15,25.4,0,68.5,0,11.6,0,59,0,24.9,0,24.1,0,29,0
2003/9/2,9:30,25.1,0,68.7,0,11.7,0,58.7,0,24.9,0,24.2,0,29.1,0
2003/9/2,9:45,24.9,0,69.1,0,11.7,0,58.5,0,25,0,24.2,0,29.2,0
2003/9/2,10:00,25.6,0,65.9,0,11.7,0,58.2,0,25,0,24.3,0,29.4,0
2003/9/2,10:15,25.5,0,67,0,11.9,0,58,0,25,0,24.3,0,29.6,0
2003/9/2,10:30,25.8,0,65.5,0,12,0,57.7,0,25.1,0,24.4,0,29.7,0
2003/9/2,10:45,26.1,0,63,0,12,0,57.3,0,25.2,0,24.4,0,29.9,0
2003/9/2,11:00,26.8,0,61.6,0,12.2,0,56.8,0,25.3,0,24.5,0,30.1,0
2003/9/2,11:15,26.3,0,61.8,0,12.1,0,56.4,0,25.4,0,24.5,0,30.2,0
2003/9/2,11:30,26.3,0,62.6,0,12.3,0,55.9,0,25.5,0,24.6,0,30.3,0
2003/9/2,11:45,26.6,0,62.2,0,12.5,0,55.5,0,25.6,0,24.6,0,30.4,0
2003/9/2,12:00,26.7,0,61.1,0,12.3,0,55.1,0,25.7,0,24.7,0,30.5,0
2003/9/2,12:15,26.9,0,61.3,0,12.4,0,55,0,25.8,0,24.8,0,30.6,0
2003/9/2,12:30,27,0,60.3,0,12.5,0,54.6,0,25.9,0,24.8,0,30.8,0
2003/9/2,12:45,26.9,0,60.6,0,12.6,0,54.5,0,26,0,24.9,0,30.9,0
2003/9/2,13:00,26.5,0,61.4,0,12.7,0,54.1,0,26,0,24.9,0,31,0
2003/9/2,13:15,27.1,0,60.8,0,12.5,0,54,0,26.1,0,25,0,31.1,0
2003/9/2,13:30,26.9,0,60.8,0,12.8,0,54.2,0,26.2,0,25.1,0,31.3,0
2003/9/2,13:45,26.5,0,61.4,0,12.8,0,53.8,0,26.3,0,25.2,0,31.4,0
2003/9/2,14:00,26.5,0,62.4,0,12.8,0,53.6,0,26.3,0,25.2,0,31.5,0
2003/9/2,14:15,26.5,0,62.6,0,13,0,53.9,0,26.4,0,25.3,0,31.5,0
2003/9/2,14:30,25.8,0,64.5,0,13,0,53.5,0,26.5,0,25.4,0,31.6,0
2003/9/2,14:45,25.7,0,65.8,0,13,0,52.5,0,26.5,0,25.5,0,31.6,0
2003/9/2,15:00,25.1,0,67.6,0,13,0,52.4,0,26.5,0,25.5,0,31.6,0
2003/9/2,15:15,25.1,0,67.1,0,13,0,52.4,0,26.5,0,25.6,0,31.5,0
2003/9/2,15:30,24.9,0,69.3,0,12.9,0,52.1,0,26.5,0,25.7,0,31.4,0
2003/9/2,15:45,24.8,0,68,0,12.9,0,52.4,0,26.6,0,25.7,0,31.4,0
2003/9/2,16:00,24.9,0,67.8,0,12.9,0,52.2,0,26.6,0,25.8,0,31.4,0
2003/9/2,16:15,24.8,0,70.1,0,12.9,0,52.5,0,26.6,0,25.9,0,31.4,0
2003/9/2,16:30,24,0,77.1,0,12.9,0,52.5,0,26.6,0,25.9,0,31.4,0
2003/9/2,16:45,23.4,0,81.4,0,12.9,0,52.6,0,26.6,0,26,0,31.4,0
2003/9/2,17:00,23,0,83,0,12.8,0,52.7,0,26.6,0,26.1,0,31.3,0
2003/9/2,17:15,22.6,0,84.9,0,12.8,0,53.1,0,26.6,0,26.1,0,31.2,0
2003/9/2,17:30,22.4,0,85.6,0,12.8,0,53.5,0,26.5,0,26.2,0,31.1,0
2003/9/2,17:45,22.4,0,86,0,29.4,0,58.2,0,27.8,0,25,0,30,0
2003/9/2,18:00,22.3,0,85.7,0,29.3,0,58.7,0,27.1,0,25,0,30.5,0
2003/9/2,18:15,22.3,0,86.8,0,29.1,0,59.4,0,26.8,0,25.1,0,30.1,0
2003/9/2,18:30,22.2,0,87.3,0,29,0,59.9,0,26.6,0,25.1,0,29.8,0
2003/9/2,18:45,22.3,0,86.8,0,28.9,0,60.5,0,26.6,0,24.6,0,29.7,0
2003/9/2,19:00,22.2,0,87,0,28.9,0,61.2,0,26.5,0,24.1,0,29.7,0
2003/9/2,19:15,22.2,0,88.1,0,28.9,0,61.1,0,26.5,0,24.2,0,29.6,0
2003/9/2,19:30,21.9,0,87.9,0,29.2,0,60.1,0,26.5,0,24.3,0,29.7,0
2003/9/2,19:45,21.8,0,89.5,0,29.4,0,59.4,0,26.5,0,24.3,0,29.9,0
2003/9/2,20:00,21.7,0,90.8,0,29.5,0,59.6,0,26.4,0,24.4,0,30.1,0
2003/9/2,20:15,21.5,0,91.6,0,29.4,0,59.3,0,26.4,0,24.4,0,30.2,0
2003/9/2,20:30,21.5,0,91.8,0,29.4,0,59.3,0,26.4,0,24.5,0,30.2,0
2003/9/2,20:45,21.5,0,91.9,0,29.4,0,60.2,0,26.4,0,24.6,0,30.1,0
2003/9/2,21:00,21.4,0,92,0,28.7,0,62.9,0,26.5,0,24.6,0,29.7,0
2003/9/2,21:15,21.4,0,92.5,0,29.1,0,62.1,0,26.4,0,24.7,0,29.6,0
2003/9/2,21:30,21.2,0,92.7,0,27.6,0,57.2,0,26.5,0,24.7,0,29.5,0
2003/9/2,21:45,21.2,0,92.9,0,27,0,55.1,0,26.4,0,24.8,0,29,0
2003/9/2,22:00,21.1,0,92.8,0,26.6,0,53.6,0,26.4,0,24.8,0,28.7,0
2003/9/2,22:15,21.1,0,92.6,0,26.3,0,53.1,0,26.3,0,24.8,0,28.3,0
2003/9/2,22:30,21.1,0,92.7,0,27,0,54.8,0,26.3,0,24.3,0,28.1,0
2003/9/2,22:45,21.1,0,92.6,0,27.5,0,55.6,0,26.3,0,24.4,0,28.3,0
2003/9/2,23:00,21,0,92.3,0,27.6,0,58.3,0,26.3,0,24.5,0,28.4,0
2003/9/2,23:15,20.9,0,92.2,0,27.6,0,59.7,0,26.3,0,24.5,0,28.5,0
2003/9/2,23:30,21,0,92.2,0,27.6,0,60.4,0,26.3,0,24.6,0,28.6,0
2003/9/2,23:45,21.1,0,92.4,0,27.6,0,61.6,0,26.3,0,24.6,0,28.6,0
2003/9/3,0:00,21.1,0,92.4,0,27.6,0,61.8,0,26.3,0,24.7,0,28.6,0
2003/9/3,0:15,21.2,0,92.3,0,27.6,0,62.4,0,26.3,0,24.7,0,28.6,0
2003/9/3,0:30,21.2,0,92.7,0,27.6,0,62.5,0,26.3,0,24.8,0,28.6,0
2003/9/3,0:45,21.2,0,92.6,0,27.6,0,62.4,0,26.3,0,24.8,0,28.6,0
2003/9/3,1:00,21,0,92.6,0,27.6,0,62.3,0,26.3,0,24.8,0,28.5,0
2003/9/3,1:15,21.1,0,92.6,0,27.6,0,62.3,0,26.3,0,24.9,0,28.5,0
2003/9/3,1:30,21.1,0,92.7,0,27.6,0,62.3,0,26.3,0,24.9,0,28.5,0
2003/9/3,1:45,21.3,0,92.7,0,27.6,0,62.2,0,26.3,0,25,0,28.5,0
2003/9/3,2:00,21.4,0,92.6,0,27.6,0,62.2,0,26.3,0,25,0,28.4,0
2003/9/3,2:15,21.4,0,92.5,0,27.6,0,62.3,0,26.3,0,25.1,0,28.4,0
2003/9/3,2:30,21.5,0,92.6,0,27.5,0,62.1,0,26.3,0,25.1,0,28.4,0
2003/9/3,2:45,21.6,0,92.6,0,27.5,0,62.1,0,26.3,0,25.2,0,28.4,0
2003/9/3,3:00,22.3,0,93.2,0,27.5,0,61.7,0,26.3,0,25.2,0,28.3,0
2003/9/3,3:15,23.7,0,91.5,0,27.5,0,61.9,0,26.3,0,25.3,0,28.3,0
2003/9/3,3:30,24.2,0,89.5,0,27.5,0,61.5,0,26.3,0,25.3,0,28.3,0
2003/9/3,3:45,24.4,0,88.3,0,27.5,0,61.8,0,26.3,0,25.4,0,28.3,0
2003/9/3,4:00,24.5,0,88.4,0,27.5,0,61.7,0,26.3,0,25.4,0,28.3,0
2003/9/3,4:15,24.4,0,88.9,0,27.5,0,61.8,0,26.3,0,25.5,0,28.3,0
2003/9/3,4:30,24.4,0,88.8,0,27.5,0,61.8,0,26.3,0,25.5,0,28.3,0
2003/9/3,4:45,24.5,0,88.3,0,27.5,0,61.9,0,26.4,0,25.5,0,28.3,0
2003/9/3,5:00,24.3,0,88.6,0,27.5,0,62,0,26.5,0,25.6,0,28.3,0
2003/9/3,5:15,24.1,0,89.8,0,27.5,0,61.9,0,26.5,0,25.6,0,28.3,0
2003/9/3,5:30,23.7,0,89.3,0,27.5,0,61.9,0,26.6,0,25.7,0,28.3,0
2003/9/3,5:45,23.5,0,90,0,27.5,0,62.3,0,26.6,0,25.7,0,28.3,0
2003/9/3,6:00,23.7,0,89.4,0,27.5,0,62.6,0,26.6,0,25.8,0,28.4,0
2003/9/3,6:15,23.6,0,88.2,0,27.5,0,62.3,0,26.7,0,25.8,0,28.4,0
2003/9/3,6:30,23.6,0,87.8,0,27.5,0,62.5,0,26.7,0,24.2,0,28.6,0
2003/9/3,6:45,23.6,0,85.8,0,27.5,0,62.6,0,26.7,0,24,0,29,0
2003/9/3,7:00,23.4,0,84.5,0,27.6,0,64,0,26.6,0,24.3,0,29.3,0
2003/9/3,7:15,23.5,0,82.5,0,27.3,0,65.3,0,26.5,0,24.3,0,29.4,0
2003/9/3,7:30,23.5,0,81.8,0,27.4,0,65.2,0,26.4,0,24.2,0,29.4,0
2003/9/3,7:45,23.5,0,81.6,0,27.5,0,64.9,0,26.4,0,23.9,0,29.3,0
2003/9/3,8:00,24.1,0,80.4,0,27.6,0,64.6,0,26.3,0,24,0,29.2,0
2003/9/3,8:15,24.1,0,79.7,0,27.6,0,64.4,0,26.3,0,24,0,29.2,0
2003/9/3,8:30,24.2,0,80,0,27.8,0,63.9,0,26.3,0,24,0,29.1,0
2003/9/3,8:45,24.2,0,79,0,27.8,0,63.8,0,26.3,0,24.1,0,29.1,0
2003/9/3,9:00,24.5,0,77.5,0,27.8,0,63.5,0,26.3,0,24.1,0,29.1,0
2003/9/3,9:15,24.7,0,76.9,0,28,0,62.8,0,26.2,0,24.2,0,29.2,0
2003/9/3,9:30,24.1,0,79.3,0,27.9,0,63.1,0,26.2,0,24.2,0,29.2,0
2003/9/3,9:45,23.3,0,85.1,0,27.9,0,63.2,0,26.2,0,24.3,0,29.1,0
2003/9/3,10:00,23.4,0,85.1,0,28,0,63.3,0,26.2,0,24.3,0,29.1,0
2003/9/3,10:15,24,0,82.3,0,28,0,63.1,0,26.2,0,24.4,0,29.1,0
2003/9/3,10:30,24.2,0,80.2,0,28.1,0,63,0,26.2,0,24.4,0,29.2,0
2003/9/3,10:45,24.7,0,77.4,0,28.1,0,62.6,0,26.2,0,24.5,0,29.2,0
2003/9/3,11:00,24.9,0,76.1,0,28.1,0,62.5,0,26.2,0,24.5,0,29.2,0
2003/9/3,11:15,25,0,74.4,0,28.2,0,62.2,0,26.2,0,24.6,0,29.2,0
2003/9/3,11:30,25.6,0,70.9,0,28.3,0,61.9,0,26.3,0,24.6,0,29.3,0
2003/9/3,11:45,25.3,0,69.8,0,28.4,0,61.5,0,26.3,0,24.7,0,29.4,0
2003/9/3,12:00,24.9,0,71.9,0,28.5,0,61.5,0,26.3,0,24.7,0,29.5,0
2003/9/3,12:15,25.8,0,69.5,0,28.6,0,61,0,26.4,0,24.8,0,29.5,0
2003/9/3,12:30,26.1,0,67.7,0,28.7,0,60.8,0,26.4,0,24.8,0,29.6,0
2003/9/3,12:45,26,0,68.5,0,28.8,0,60.7,0,26.5,0,24.9,0,29.7,0
2003/9/3,13:00,26.3,0,65.9,0,28.9,0,60.7,0,26.6,0,24.9,0,29.8,0
2003/9/3,13:15,26.2,0,65.6,0,28.9,0,60.4,0,26.7,0,25,0,29.9,0
2003/9/3,13:30,26.5,0,64,0,29,0,59,0,26.8,0,25.1,0,30,0
2003/9/3,13:45,26.6,0,63.5,0,29.2,0,58.9,0,26.9,0,25.1,0,30.2,0
2003/9/3,14:00,26.1,0,64,0,29.3,0,57.8,0,27,0,25.2,0,30.3,0
2003/9/3,14:15,26.4,0,62.8,0,29.4,0,57.9,0,27,0,25.3,0,30.4,0
2003/9/3,14:30,25.8,0,64.5,0,29.5,0,57,0,27.1,0,25.3,0,30.5,0
2003/9/3,14:45,26,0,64.9,0,29.5,0,55.9,0,27.2,0,25.4,0,30.6,0
2003/9/3,15:00,24.9,0,67.4,0,29.5,0,55.6,0,27.2,0,25.5,0,30.7,0
2003/9/3,15:15,25,0,66,0,29.6,0,55,0,27.2,0,25.5,0,30.6,0
2003/9/3,15:30,24.8,0,67.1,0,29.5,0,54.7,0,27.2,0,25.6,0,30.6,0
2003/9/3,15:45,25.1,0,67,0,29.7,0,54.5,0,27.2,0,25.7,0,30.7,0
2003/9/3,16:00,25.5,0,64.4,0,29.7,0,54.4,0,27.2,0,25.7,0,30.8,0
2003/9/3,16:15,25.2,0,63.6,0,29.8,0,53.4,0,27.2,0,25.8,0,30.8,0
2003/9/3,16:30,24.6,0,66.9,0,29.7,0,53.5,0,27.2,0,25.9,0,30.8,0
2003/9/3,16:45,23.9,0,69.9,0,29.7,0,53.6,0,27.1,0,25.9,0,30.7,0
2003/9/3,17:00,24.1,0,69.2,0,29.7,0,54.1,0,27.1,0,26,0,30.7,0
2003/9/3,17:15,23.9,0,70.3,0,29.6,0,54,0,27.1,0,26,0,30.6,0
2003/9/3,17:30,23.7,0,70.6,0,29.5,0,54.2,0,27.1,0,26.1,0,30.5,0
2003/9/3,17:45,23.5,0,71.4,0,28.9,0,54.5,0,27,0,26.1,0,30,0
2003/9/3,18:00,23.1,0,72.4,0,28.6,0,54.9,0,27,0,25,0,29.8,0
2003/9/3,18:15,22.9,0,73.9,0,28.5,0,54.7,0,27,0,25,0,29.5,0
2003/9/3,18:30,22.7,0,74.5,0,28.3,0,55.5,0,26.9,0,25.1,0,29.6,0
2003/9/3,18:45,22.5,0,75.2,0,28.1,0,55.8,0,26.9,0,25.1,0,29.6,0
2003/9/3,19:00,22.5,0,76.3,0,28.3,0,55.8,0,26.8,0,25.1,0,29.6,0
2003/9/3,19:15,22.4,0,77.2,0,28.2,0,56.5,0,26.8,0,25.2,0,29.6,0
2003/9/3,19:30,22,0,80.2,0,28.1,0,56.4,0,26.8,0,25.2,0,29.5,0
2003/9/3,19:45,21.6,0,81.1,0,27.9,0,56.9,0,26.7,0,25.3,0,29.4,0
2003/9/3,20:00,21.5,0,81.5,0,27.5,0,58.1,0,26.7,0,25.3,0,29.2,0
2003/9/3,20:15,21.4,0,82.2,0,27.6,0,58.1,0,26.6,0,25.3,0,28.9,0
2003/9/3,20:30,21.3,0,83,0,27.5,0,58.2,0,26.6,0,25.4,0,28.5,0
2003/9/3,20:45,21,0,84.2,0,27.4,0,58.9,0,26.6,0,25.4,0,28.6,0
2003/9/3,21:00,21,0,85.2,0,27.4,0,59.3,0,26.5,0,25.4,0,28.6,0
2003/9/3,21:15,20.6,0,88.6,0,27.3,0,59.4,0,26.5,0,25.5,0,28.6,0
2003/9/3,21:30,20.5,0,89,0,27.2,0,60.4,0,26.5,0,25.5,0,28.3,0
2003/9/3,21:45,20.5,0,88.2,0,27.1,0,60.9,0,26.5,0,25.5,0,27.9,0
2003/9/3,22:00,20.6,0,88.2,0,27.5,0,60.4,0,26.5,0,25.6,0,28,0
2003/9/3,22:15,20.6,0,89.5,0,27.6,0,60.2,0,26.5,0,25.6,0,28.3,0
2003/9/3,22:30,21.1,0,88.7,0,27.7,0,60,0,26.4,0,25.6,0,28.4,0
2003/9/3,22:45,21.8,0,84.1,0,27.8,0,60,0,26.4,0,25.7,0,28.5,0
2003/9/3,23:00,22.1,0,82.6,0,27.9,0,59.5,0,26.4,0,25.7,0,28.6,0
2003/9/3,23:15,22.1,0,82.3,0,27.9,0,59,0,26.4,0,25.7,0,28.6,0
2003/9/3,23:30,22.2,0,80.9,0,27.9,0,58.9,0,26.4,0,25.8,0,28.6,0
2003/9/3,23:45,22.1,0,81.5,0,27.8,0,58.7,0,26.4,0,25.8,0,28.6,0
2003/9/4,0:00,22.1,0,80.7,0,27.8,0,58.5,0,26.4,0,25.8,0,28.5,0
2003/9/4,0:15,21.9,0,81.9,0,27.8,0,58.6,0,26.4,0,25.9,0,28.5,0
2003/9/4,0:30,21.8,0,82.2,0,27.8,0,58.7,0,26.4,0,25.9,0,28.5,0
2003/9/4,0:45,21.7,0,81.7,0,27.8,0,58.6,0,26.4,0,25.9,0,28.5,0
2003/9/4,1:00,21.7,0,82.8,0,27.7,0,58.5,0,26.4,0,26,0,28.5,0
2003/9/4,1:15,21.5,0,84.1,0,27.7,0,58.3,0,26.4,0,26,0,28.4,0
2003/9/4,1:30,21.3,0,86.1,0,27.7,0,58.2,0,26.3,0,26.1,0,28.4,0
2003/9/4,1:45,20.9,0,88.1,0,27.7,0,58.1,0,26.3,0,26.1,0,28.4,0
2003/9/4,2:00,20.8,0,87.2,0,27.6,0,58,0,26.3,0,26.1,0,28.3,0
2003/9/4,2:15,20.6,0,87.3,0,27.6,0,57.9,0,26.3,0,26.2,0,28.3,0
2003/9/4,2:30,20.3,0,87.4,0,27.6,0,57.7,0,26.3,0,26.2,0,28.3,0
2003/9/4,2:45,20.1,0,87.6,0,27.6,0,57.5,0,26.2,0,26.2,0,28.2,0
2003/9/4,3:00,19.9,0,88.3,0,27.5,0,57.4,0,26.2,0,26.3,0,28.2,0
2003/9/4,3:15,19.6,0,89.9,0,27.5,0,57.3,0,26.2,0,26.3,0,28.2,0
2003/9/4,3:30,19.6,0,90.7,0,27.5,0,57.1,0,26.2,0,26.3,0,28.1,0
2003/9/4,3:45,19.5,0,90.8,0,27.4,0,56.9,0,26.1,0,26.4,0,28,0
2003/9/4,4:00,19.4,0,90.7,0,27.4,0,56.9,0,26.1,0,26.4,0,28,0
2003/9/4,4:15,19.2,0,90.6,0,27.3,0,56.7,0,26.1,0,26.4,0,27.9,0
2003/9/4,4:30,18.8,0,91.4,0,27.3,0,56.7,0,26,0,26.4,0,27.9,0
2003/9/4,4:45,18.7,0,91.6,0,27.2,0,56.5,0,26,0,26.5,0,27.9,0
2003/9/4,5:00,18.4,0,91.8,0,27.2,0,56.4,0,26,0,26.5,0,27.8,0
2003/9/4,5:15,18.4,0,92.1,0,27.1,0,56.3,0,25.9,0,26.5,0,27.7,0
2003/9/4,5:30,18.5,0,92.2,0,27.1,0,56.2,0,25.9,0,26.6,0,27.7,0
2003/9/4,5:45,18.5,0,91.9,0,27.1,0,56.4,0,25.8,0,26.6,0,27.7,0
2003/9/4,6:00,18.2,0,91.6,0,27,0,56.5,0,25.8,0,26.6,0,27.8,0
2003/9/4,6:15,18.4,0,91.8,0,27,0,56.2,0,25.7,0,26.6,0,27.8,0
2003/9/4,6:30,18.8,0,90.8,0,27,0,56.6,0,25.7,0,24.5,0,28,0
2003/9/4,6:45,19.7,0,88.1,0,26.9,0,57,0,25.7,0,24.9,0,28.7,0
2003/9/4,7:00,20.3,0,85.3,0,26.9,0,57.9,0,25.7,0,24.9,0,28.8,0
2003/9/4,7:15,20.8,0,83.6,0,27.1,0,57.9,0,25.6,0,23.9,0,28.7,0
2003/9/4,7:30,21.3,0,82.2,0,27,0,57.9,0,25.6,0,24,0,28.6,0
2003/9/4,7:45,22.4,0,78,0,27.3,0,57.9,0,25.6,0,23.9,0,28.6,0
2003/9/4,8:00,23.1,0,75.7,0,27.3,0,58.1,0,25.5,0,23.9,0,28.6,0
2003/9/4,8:15,24.4,0,69.7,0,27.8,0,57.3,0,25.5,0,24,0,28.7,0
2003/9/4,8:30,24.7,0,67.3,0,27.8,0,57.5,0,25.5,0,24,0,28.9,0
2003/9/4,8:45,24.5,0,67.9,0,27.9,0,57.4,0,25.5,0,24.1,0,28.9,0
2003/9/4,9:00,24.6,0,66.7,0,28.1,0,56.9,0,25.4,0,24.1,0,29,0
2003/9/4,9:15,25.2,0,64,0,28.4,0,56,0,25.4,0,24.2,0,29.2,0
2003/9/4,9:30,24.9,0,66.1,0,28.7,0,55.6,0,25.4,0,24.2,0,29.5,0
2003/9/4,9:45,25.2,0,62.5,0,28.7,0,55.5,0,25.4,0,24.3,0,29.6,0
2003/9/4,10:00,25.4,0,62.5,0,28.9,0,55,0,25.5,0,24.3,0,29.8,0
2003/9/4,10:15,25.3,0,62.1,0,29.1,0,54.5,0,25.5,0,24.4,0,30,0
2003/9/4,10:30,25.5,0,62.3,0,29.2,0,54.2,0,25.6,0,24.4,0,30.2,0
2003/9/4,10:45,26.1,0,61.8,0,29.3,0,54.1,0,25.7,0,24.5,0,30.3,0
2003/9/4,11:00,25.5,0,65,0,29.3,0,54,0,25.8,0,24.6,0,30.4,0
2003/9/4,11:15,26.1,0,63.6,0,29.4,0,54,0,25.9,0,24.6,0,30.5,0
2003/9/4,11:30,26.3,0,62.8,0,29.5,0,53.9,0,26,0,24.7,0,30.6,0
2003/9/4,11:45,25.7,0,65.2,0,29.6,0,53.9,0,26.1,0,24.7,0,30.7,0
2003/9/4,12:00,26,0,62.9,0,29.6,0,53.8,0,26.2,0,24.8,0,30.8,0
2003/9/4,12:15,26.1,0,60.7,0,29.7,0,52.9,0,26.3,0,24.8,0,30.9,0
2003/9/4,12:30,26.5,0,59,0,29.8,0,52.3,0,26.4,0,24.9,0,31,0
2003/9/4,12:45,26.1,0,61,0,29.8,0,52.6,0,26.5,0,25,0,31.1,0
2003/9/4,13:00,26.2,0,61.1,0,29.9,0,52,0,26.6,0,25.1,0,31.2,0
2003/9/4,13:15,26.5,0,60.5,0,30.1,0,51.9,0,26.7,0,25.1,0,31.3,0
2003/9/4,13:30,26.4,0,59.6,0,30.2,0,51.2,0,26.8,0,25.2,0,31.4,0
2003/9/4,13:45,26.3,0,60.2,0,30.2,0,51,0,26.8,0,25.3,0,31.5,0
2003/9/4,14:00,26.2,0,62.2,0,30.4,0,50.7,0,26.9,0,25.4,0,31.6,0
2003/9/4,14:15,26,0,63.2,0,30.4,0,50.7,0,27,0,25.4,0,31.6,0
2003/9/4,14:30,25.9,0,63.1,0,30.4,0,50.8,0,27,0,25.5,0,31.7,0
2003/9/4,14:45,26,0,62.9,0,30.6,0,50.5,0,27.1,0,25.6,0,31.7,0
2003/9/4,15:00,25.9,0,63.2,0,30.7,0,50.5,0,27.1,0,25.7,0,31.8,0
2003/9/4,15:15,25.7,0,63.9,0,30.7,0,50.3,0,27.2,0,25.7,0,31.9,0
2003/9/4,15:30,25.3,0,66,0,30.8,0,50.3,0,27.2,0,25.8,0,31.9,0
2003/9/4,15:45,24.8,0,68.5,0,30.8,0,50.2,0,27.2,0,25.9,0,31.9,0
2003/9/4,16:00,24.7,0,69.8,0,30.7,0,50.4,0,27.2,0,26,0,31.9,0
2003/9/4,16:15,24.3,0,69.3,0,30.6,0,50.8,0,27.2,0,26,0,31.8,0
2003/9/4,16:30,24.5,0,69.8,0,30.6,0,50.6,0,27.2,0,26.1,0,31.7,0
2003/9/4,16:45,24.6,0,69,0,30.5,0,50.6,0,27.2,0,26.2,0,31.7,0
2003/9/4,17:00,24.5,0,69.1,0,30.5,0,51,0,27.2,0,26.2,0,31.6,0
2003/9/4,17:15,24.2,0,69.9,0,30.4,0,50.9,0,27.2,0,26.3,0,31.6,0
2003/9/4,17:30,23.7,0,72.4,0,30.3,0,51.3,0,27.1,0,26.3,0,31.5,0
2003/9/4,17:45,23.4,0,73.6,0,29.5,0,53.5,0,27.1,0,24.4,0,30.9,0
2003/9/4,18:00,22.3,0,81.2,0,29.2,0,53.7,0,27.1,0,24.5,0,30.9,0
2003/9/4,18:15,21.6,0,84.2,0,29.1,0,53.7,0,27.1,0,24.5,0,30.4,0
2003/9/4,18:30,21.3,0,85.1,0,28.9,0,54.5,0,27,0,24.5,0,29.8,0
2003/9/4,18:45,21.1,0,86,0,28.8,0,55.7,0,27,0,24.6,0,29.6,0
2003/9/4,19:00,21,0,86.1,0,28.7,0,56.5,0,27,0,24.6,0,29.5,0
2003/9/4,19:15,20.8,0,86.7,0,28.4,0,57.7,0,26.9,0,24.7,0,29.4,0
2003/9/4,19:30,20.7,0,87.3,0,28.4,0,57.6,0,26.9,0,24.7,0,29.3,0
2003/9/4,19:45,20.7,0,87.2,0,28.2,0,57.8,0,26.9,0,24.8,0,29.3,0
2003/9/4,20:00,20.7,0,86.9,0,28,0,58.6,0,26.7,0,24.8,0,29.1,0
2003/9/4,20:15,20.8,0,86.7,0,27.9,0,58.9,0,26.6,0,24.8,0,28.8,0
2003/9/4,20:30,20.6,0,87.5,0,27.8,0,59,0,26.7,0,24.9,0,28.6,0
2003/9/4,20:45,20.6,0,88,0,27.6,0,59.9,0,26.6,0,24.9,0,28.4,0
2003/9/4,21:00,20.1,0,89.6,0,27.5,0,59.8,0,26.6,0,25,0,28.2,0
2003/9/4,21:15,20.2,0,89,0,27.5,0,59.7,0,26.6,0,25,0,28.1,0
2003/9/4,21:30,19.8,0,89.2,0,27.3,0,60.2,0,26.6,0,25.1,0,27.9,0
2003/9/4,21:45,19.2,0,90.9,0,27.6,0,58.7,0,26.5,0,24.2,0,28,0
2003/9/4,22:00,19.2,0,91.2,0,27.6,0,59.1,0,26.5,0,24.2,0,28.2,0